• In Deutschland
  • Länderverzeichnis
  • Für 7 Tage
  • Wassertemperatur
  • Satellitenkarten
  • Wetterkarte
  • Widgets
  • user-avatar
    Anmelden

    Stündliche Wetter Ibigs

    Heute, 25 September, Montag

    Zeit Temperatur Niederschläge Wind Luftdruck Luftfeuchtigkeit
    00:00 +20°C° 0,4 mm 1 m/S 649 mmHg 70%
    01:00 +19°C° 0 mm 2 m/S 649 mmHg 73%
    02:00 +20°C° 0,6 mm 1 m/S 649 mmHg 76%
    03:00 +19°C° 0,6 mm 1 m/S 649 mmHg 79%
    04:00 +19°C° 0,6 mm 1 m/S 648 mmHg 81%
    05:00 +19°C° 0,4 mm 1 m/S 649 mmHg 79%
    06:00 +20°C° 0,4 mm 1 m/S 649 mmHg 77%
    07:00 +20°C° 0 mm 1 m/S 650 mmHg 73%
    08:00 +21°C° 0,1 mm 2 m/S 650 mmHg 66%
    09:00 +24°C° 0,1 mm 2 m/S 650 mmHg 58%
    10:00 +26°C° 0,1 mm 3 m/S 651 mmHg 50%
    11:00 +28°C° 0 mm 3 m/S 650 mmHg 45%
    12:00 +29°C° 0 mm 3 m/S 650 mmHg 40%
    13:00 +31°C° 0 mm 3 m/S 650 mmHg 36%
    14:00 +30°C° 0 mm 3 m/S 649 mmHg 37%
    15:00 +30°C° 0 mm 2 m/S 649 mmHg 38%
    16:00 +29°C° 0 mm 2 m/S 648 mmHg 40%
    17:00 +27°C° 0,1 mm 2 m/S 648 mmHg 45%
    18:00 +25°C° 0,1 mm 2 m/S 648 mmHg 51%
    19:00 +23°C° 0,1 mm 1 m/S 648 mmHg 57%
    20:00 +22°C° 0,2 mm 1 m/S 648 mmHg 56%
    21:00 +22°C° 0,2 mm 1 m/S 649 mmHg 55%
    22:00 +21°C° 0,2 mm 1 m/S 649 mmHg 54%
    23:00 +21°C° 0 mm 1 m/S 649 mmHg 54%

    Morgen, 26 September, Dienstag

    Zeit Temperatur Niederschläge Wind Luftdruck Luftfeuchtigkeit
    00:00 +21°C° 0 mm 1 m/S 649 mmHg 54%
    01:00 +21°C° 0 mm 1 m/S 648 mmHg 53%
    02:00 +20°C° 0 mm 1 m/S 648 mmHg 54%
    03:00 +20°C° 0 mm 1 m/S 648 mmHg 54%
    04:00 +20°C° 0 mm 1 m/S 648 mmHg 54%
    05:00 +20°C° 0 mm 1 m/S 648 mmHg 54%
    06:00 +21°C° 0 mm 1 m/S 649 mmHg 54%
    07:00 +21°C° 0 mm 1 m/S 649 mmHg 54%
    08:00 +23°C° 0 mm 1 m/S 650 mmHg 50%
    09:00 +25°C° 0 mm 1 m/S 650 mmHg 46%
    10:00 +27°C° 0 mm 2 m/S 651 mmHg 42%
    11:00 +28°C° 0 mm 2 m/S 651 mmHg 40%
    12:00 +29°C° 0 mm 2 m/S 650 mmHg 38%
    13:00 +30°C° 0 mm 2 m/S 650 mmHg 36%
    14:00 +29°C° 0 mm 2 m/S 649 mmHg 38%
    15:00 +29°C° 0 mm 2 m/S 649 mmHg 39%
    16:00 +29°C° 0 mm 1 m/S 648 mmHg 40%
    17:00 +26°C° 0 mm 1 m/S 648 mmHg 46%
    18:00 +24°C° 0 mm 2 m/S 648 mmHg 52%
    19:00 +21°C° 0 mm 2 m/S 648 mmHg 58%
    20:00 +22°C° 0,2 mm 1 m/S 648 mmHg 58%
    21:00 +22°C° 0,2 mm 1 m/S 649 mmHg 57%
    22:00 +21°C° 0,2 mm 1 m/S 649 mmHg 57%
    23:00 +21°C° 0 mm 1 m/S 649 mmHg 57%

    übermorgen, 27 September, Mittwoch

    Zeit Temperatur Niederschläge Wind Luftdruck Luftfeuchtigkeit
    00:00 +20°C° 0 mm 1 m/S 649 mmHg 56%
    01:00 +20°C° 0 mm 1 m/S 648 mmHg 55%
    02:00 +20°C° 0 mm 1 m/S 648 mmHg 56%
    03:00 +19°C° 0 mm 1 m/S 647 mmHg 56%
    04:00 +19°C° 0 mm 1 m/S 647 mmHg 57%
    05:00 +20°C° 0 mm 1 m/S 648 mmHg 56%
    06:00 +20°C° 0 mm 1 m/S 648 mmHg 55%
    07:00 +19°C° 0 mm 0 m/S 649 mmHg 54%
    08:00 +23°C° 0 mm 1 m/S 649 mmHg 50%
    09:00 +25°C° 0 mm 1 m/S 650 mmHg 45%
    10:00 +27°C° 0 mm 2 m/S 651 mmHg 41%
    11:00 +29°C° 0 mm 2 m/S 650 mmHg 39%
    12:00 +30°C° 0 mm 2 m/S 650 mmHg 36%
    13:00 +31°C° 0 mm 2 m/S 649 mmHg 34%
    14:00 +30°C° 0 mm 2 m/S 648 mmHg 35%
    15:00 +30°C° 0 mm 1 m/S 648 mmHg 37%
    16:00 +29°C° 0 mm 1 m/S 647 mmHg 38%
    17:00 +27°C° 0 mm 1 m/S 647 mmHg 45%
    18:00 +25°C° 0 mm 1 m/S 648 mmHg 52%
    19:00 +22°C° 0 mm 1 m/S 648 mmHg 59%
    20:00 +22°C° 0,1 mm 1 m/S 648 mmHg 59%
    21:00 +22°C° 0,1 mm 1 m/S 649 mmHg 59%
    22:00 +21°C° 0,1 mm 1 m/S 649 mmHg 59%
    23:00 +21°C° 0,1 mm 1 m/S 649 mmHg 59%

    28 September, Donnerstag

    Zeit Temperatur Niederschläge Wind Luftdruck Luftfeuchtigkeit
    00:00 +21°C° 0,1 mm 1 m/S 649 mmHg 59%
    01:00 +20°C° 0,1 mm 1 m/S 648 mmHg 59%
    02:00 +20°C° 0 mm 1 m/S 648 mmHg 60%
    03:00 +20°C° 0 mm 1 m/S 647 mmHg 60%
    04:00 +20°C° 0 mm 1 m/S 647 mmHg 61%
    05:00 +20°C° 0 mm 1 m/S 648 mmHg 59%
    06:00 +19°C° 0 mm 0 m/S 649 mmHg 58%
    07:00 +20°C° 0 mm 0 m/S 649 mmHg 57%
    08:00 +24°C° 0 mm 1 m/S 650 mmHg 52%
    09:00 +26°C° 0 mm 1 m/S 650 mmHg 46%
    10:00 +28°C° 0 mm 1 m/S 651 mmHg 41%
    11:00 +28°C° 0 mm 1 m/S 650 mmHg 39%
    12:00 +29°C° 0 mm 1 m/S 650 mmHg 38%
    13:00 +30°C° 0 mm 2 m/S 649 mmHg 36%
    14:00 +30°C° 0 mm 1 m/S 648 mmHg 38%
    15:00 +29°C° 0 mm 1 m/S 648 mmHg 40%
    16:00 +29°C° 0 mm 1 m/S 647 mmHg 41%
    17:00 +27°C° 0 mm 1 m/S 647 mmHg 48%
    18:00 +25°C° 0 mm 1 m/S 648 mmHg 55%
    19:00 +23°C° 0 mm 1 m/S 648 mmHg 61%
    20:00 +22°C° 0 mm 1 m/S 648 mmHg 62%
    21:00 +22°C° 0 mm 1 m/S 649 mmHg 63%
    22:00 +21°C° 0 mm 1 m/S 649 mmHg 63%
    23:00 +21°C° 0,2 mm 1 m/S 649 mmHg 64%

    29 September, Freitag

    Zeit Temperatur Niederschläge Wind Luftdruck Luftfeuchtigkeit
    00:00 +21°C° 0,2 mm 1 m/S 648 mmHg 65%
    01:00 +20°C° 0,2 mm 1 m/S 648 mmHg 66%
    02:00 +20°C° 0 mm 1 m/S 648 mmHg 66%
    03:00 +20°C° 0 mm 1 m/S 648 mmHg 66%
    04:00 +20°C° 0 mm 1 m/S 648 mmHg 66%
    05:00 +21°C° 0 mm 1 m/S 648 mmHg 64%
    06:00 +19°C° 0 mm 0 m/S 649 mmHg 63%
    07:00 +20°C° 0 mm 0 m/S 650 mmHg 61%
    08:00 +24°C° 0 mm 1 m/S 650 mmHg 55%
    09:00 +26°C° 0 mm 1 m/S 651 mmHg 49%
    10:00 +27°C° 0 mm 1 m/S 651 mmHg 44%
    11:00 +28°C° 0 mm 1 m/S 650 mmHg 41%
    12:00 +29°C° 0 mm 1 m/S 650 mmHg 39%
    13:00 +30°C° 0 mm 2 m/S 649 mmHg 37%
    14:00 +30°C° 0 mm 1 m/S 649 mmHg 38%
    15:00 +29°C° 0 mm 1 m/S 648 mmHg 39%
    16:00 +29°C° 0 mm 1 m/S 648 mmHg 41%
    17:00 +27°C° 0 mm 1 m/S 648 mmHg 47%
    18:00 +25°C° 0 mm 1 m/S 648 mmHg 53%
    19:00 +23°C° 0 mm 1 m/S 648 mmHg 59%
    20:00 +23°C° 0,1 mm 1 m/S 649 mmHg 60%
    21:00 +22°C° 0,1 mm 1 m/S 649 mmHg 60%
    22:00 +22°C° 0,1 mm 1 m/S 649 mmHg 60%
    23:00 +21°C° 0,1 mm 1 m/S 649 mmHg 61%

    30 September, Samstag

    Zeit Temperatur Niederschläge Wind Luftdruck Luftfeuchtigkeit
    00:00 +21°C° 0,1 mm 1 m/S 648 mmHg 63%
    01:00 +21°C° 0,1 mm 1 m/S 648 mmHg 64%
    02:00 +20°C° 0 mm 1 m/S 648 mmHg 64%
    03:00 +20°C° 0 mm 1 m/S 648 mmHg 65%
    04:00 +20°C° 0 mm 1 m/S 648 mmHg 66%
    05:00 +20°C° 0 mm 1 m/S 648 mmHg 64%
    06:00 +21°C° 0 mm 1 m/S 649 mmHg 63%
    07:00 +22°C° 0 mm 1 m/S 650 mmHg 62%
    08:00 +23°C° 0 mm 1 m/S 650 mmHg 57%
    09:00 +25°C° 0 mm 1 m/S 650 mmHg 52%
    10:00 +26°C° 0 mm 1 m/S 651 mmHg 47%
    11:00 +27°C° 0 mm 2 m/S 650 mmHg 45%
    12:00 +28°C° 0 mm 2 m/S 650 mmHg 43%
    13:00 +29°C° 0 mm 2 m/S 649 mmHg 41%
    14:00 +28°C° 0,1 mm 2 m/S 649 mmHg 44%
    15:00 +28°C° 0,1 mm 2 m/S 648 mmHg 48%
    16:00 +27°C° 0,1 mm 2 m/S 648 mmHg 51%
    17:00 +26°C° 0,1 mm 1 m/S 648 mmHg 55%
    18:00 +24°C° 0,1 mm 1 m/S 648 mmHg 59%
    19:00 +23°C° 0,1 mm 1 m/S 648 mmHg 63%
    20:00 +22°C° 0,1 mm 1 m/S 648 mmHg 64%
    21:00 +22°C° 0,1 mm 1 m/S 649 mmHg 65%
    22:00 +22°C° 0,1 mm 1 m/S 649 mmHg 66%
    23:00 +21°C° 0,1 mm 1 m/S 648 mmHg 68%
    Mehr zeigen